Weather History for KPHP - February, 2014

Change the Weather History Date:

Saturday, February 1, 2014

  Actual Average Record
Temperature  
Mean Temperature 11 °F 23 °F  
Max Temperature 18 °F 36 °F 65 °F (1992)
Min Temperature 4 °F 11 °F -22 °F (1979)
Degree Days  
Heating Degree Days 54 42  
Month to date heating degree days 54 42  
Since 1 July heating degree days 4322 4307  
Cooling Degree Days 0 0  
Month to date cooling degree days 0 0  
Year to date cooling degree days 0 0  
Moisture  
Dew Point 1 °F    
Average Humidity 62    
Maximum Humidity 76    
Minimum Humidity 47    
Precipitation  
Precipitation 0.00 in 0.01 in 0.09 in (1988)
Month to date precipitation 0.00 0.01  
Year to date precipitation 0.11 0.31  
Sea Level Pressure  
Sea Level Pressure 30.20 in    
Wind  
Wind Speed 12 mph (NW)    
Max Wind Speed 26 mph    
Max Gust Speed 32 mph    
Visibility 10 miles    
Events      
T = Trace of Precipitation, MM = Missing Value Source: NWS Daily Summary

Daily Weather History Graph

Daily Weather History Graph

Search for Another Location

Airport or City:

Trip Planner

Search our weather history database for the weather conditions in past years. The results will help you decide how hot, cold, wet, or windy it might be!

Date:

Astronomy

Feb. 01, 2014 Rise Set
Actual Time 7:03 AM MST 4:56 PM MST
Civil Twilight 6:33 AM MST 5:27 PM MST
Nautical Twilight 5:58 AM MST 6:02 PM MST
Astronomical Twilight 5:24 AM MST 6:35 PM MST
Moon 7:48 AM MST (2/1) 7:41 PM MST (2/1)
Length of Visible Light 10h 54m
Length of Day
9h 52m
Waxing Crescent, 5% of the Moon is Illuminated
Feb 1
Waxing Crescent
Feb 6
First Quarter
Feb 14
Full
Feb 22
Last Quarter
Mar 1
New

Hourly Weather History & Observations

Time (MST) Temp. Windchill Dew Point Humidity Pressure Visibility Wind Dir Wind Speed Gust Speed Precip Events Conditions
12:55 AM 15.1 °F 1.1 °F 5.0 °F 64% 30.01 in 10.0 mi NW 12.7 mph - N/A   Clear
1:55 AM 14.0 °F 1.2 °F 3.9 °F 64% 30.03 in 10.0 mi NNW 10.4 mph 20.7 mph N/A   Clear
2:55 AM 12.9 °F -2.2 °F 3.9 °F 67% 30.05 in 10.0 mi NW 13.8 mph - N/A   Scattered Clouds
3:10 AM 12.2 °F -3.1 °F 3.2 °F 67% 29.98 in 10.0 mi NW 13.8 mph - N/A   Mostly Cloudy
3:18 AM 12.2 °F -2.5 °F 3.2 °F 67% 29.98 in 10.0 mi NW 12.7 mph - N/A   Partly Cloudy
3:55 AM 12.0 °F -1.3 °F 3.0 °F 67% 30.08 in 10.0 mi NW 10.4 mph - N/A   Scattered Clouds
4:55 AM 14.0 °F -0.2 °F 3.0 °F 62% 30.10 in 10.0 mi NW 12.7 mph - N/A   Overcast
5:55 AM 12.9 °F -2.8 °F 3.0 °F 65% 30.12 in 10.0 mi NNW 15.0 mph - N/A   Overcast
6:55 AM 10.0 °F -5.2 °F 1.0 °F 67% 30.15 in 10.0 mi NNW 12.7 mph - N/A   Overcast
7:55 AM 10.0 °F -7.1 °F -0.0 °F 64% 30.19 in 10.0 mi NNW 16.1 mph - N/A   Partly Cloudy
8:55 AM 10.0 °F -7.6 °F -0.9 °F 61% 30.21 in 10.0 mi NNW 17.3 mph - N/A   Partly Cloudy
9:55 AM 15.1 °F -2.9 °F 1.0 °F 54% 30.22 in 10.0 mi NNW 21.9 mph 27.6 mph N/A   Clear
10:55 AM 14.0 °F -4.3 °F -0.0 °F 54% 30.24 in 10.0 mi NNW 21.9 mph - N/A   Mostly Cloudy
11:55 AM 15.1 °F -2.5 °F -0.9 °F 49% 30.24 in 10.0 mi NW 20.7 mph 27.6 mph N/A   Clear
12:55 PM 16.0 °F -0.9 °F -0.0 °F 49% 30.23 in 10.0 mi NW 19.6 mph 26.5 mph N/A   Partly Cloudy
1:55 PM 17.1 °F 2.0 °F -0.0 °F 47% 30.23 in 10.0 mi NNW 16.1 mph 24.2 mph N/A   Partly Cloudy
2:55 PM 18.0 °F 2.6 °F -0.0 °F 45% 30.24 in 10.0 mi NNW 17.3 mph - N/A   Clear
3:55 PM 17.1 °F 0.1 °F -0.0 °F 47% 30.25 in 10.0 mi NW 20.7 mph - N/A   Mostly Cloudy
4:55 PM 12.9 °F -2.2 °F -0.0 °F 56% 30.27 in 10.0 mi NNW 13.8 mph - N/A   Clear
5:55 PM 9.0 °F -2.2 °F -0.9 °F 64% 30.31 in 10.0 mi NW 6.9 mph - N/A   Clear
6:55 PM 5.0 °F -4.1 °F -2.0 °F 73% 30.34 in 10.0 mi SW 4.6 mph - N/A   Clear
7:55 PM 6.1 °F -4.3 °F -0.9 °F 73% 30.34 in 10.0 mi WNW 5.8 mph - N/A   Clear
8:55 PM 5.0 °F -2.1 °F -2.0 °F 73% 30.34 in 10.0 mi West 3.5 mph - N/A   Partly Cloudy
9:55 PM 5.0 °F - -2.0 °F 73% 30.33 in 10.0 mi Calm Calm - N/A   Mostly Cloudy
10:55 PM 6.1 °F - -0.9 °F 73% 30.33 in 10.0 mi Calm Calm - N/A   Overcast
11:55 PM 3.9 °F -5.3 °F -2.0 °F 76% 30.32 in 10.0 mi West 4.6 mph - N/A   Partly Cloudy